Regional Weather Roundup
Issued by NWS

Home | Current Version | Previous Version | Graphics & Text | Print | Product List | Glossary On
Versions: 1 2 3 4 5 6 7 8 9 10 11 12 13 14 15 16 17 18 19 20 21 22 23 24 25 26 27 28 29 30 31 32 33 34 35 36 37 38 39 40 41 42 43 44 45 46 47 48 49 50
108
ASUS45 KBOU 230807
RWRCO

WEATHER ROUNDUP FOR COLORADO
NATIONAL WEATHER SERVICE DENVER/BOULDER CO
100 AM MST MON JAN 23 2017

NOTE: "FAIR" INDICATES FEW OR NO CLOUDS BELOW 12000 FEET WITH NO
SIGNIFICANT WEATHER AND/OR OBSTRUCTIONS TO VISIBILITY.

COZ001>005-013-030-031-230900-
...NORTHWEST COLORADO...

CITY           SKY/WX    TMP DP  RH WIND       PRES   REMARKS
CRAIG          CLOUDY    33  21  61 SW14      29.76F WCI  23
HAYDEN         CLOUDY    25  18  74 SE7       29.75F WCI  17
MEEKER         CLOUDY    32  23  69 SW8       29.79F WCI  25
MOUNT WERNER   NOT AVBL
STEAMBOAT SPGS CLOUDY    23  20  89 E3        29.76F
WALDEN           N/A     23  16  74 S18       29.73F WCI   9
$$

COZ006>008-011-230900-
...WEST CENTRAL VALLEYS...

CITY           SKY/WX    TMP DP  RH WIND       PRES   REMARKS
GRAND JUNCTION CLOUDY    34  29  82 SE18G29   29.84F WCI  23
MONTROSE       MOCLDY    31  24  75 E8        29.87F WCI  23
EAGLE          CLOUDY    24  22  91 SE3       29.83F
RIFLE          CLOUDY    29  27  92 SE6       29.84F WCI  23
DELTA          CLOUDY    33  29  85 NE7       29.90F WCI  27
NUCLA          CLOUDY    32  28  86 NE6       29.92F WCI  26
$$

COZ017>023-064>068-230900-
...SOUTHWEST COLORADO...

CITY           SKY/WX    TMP DP  RH WIND       PRES   REMARKS
DURANGO        LGT SNOW  24  21  88 E5        30.03F FOG     WCI  18
CORTEZ         CLOUDY    30  26  85 SW7       30.00F WCI  23
PAGOSA SPRINGS LGT SNOW  23  23  98 CALM      30.05F
TELLURIDE      CLOUDY    28  20  71 E8        29.90  WCI  20
WOLF CREEK PAS CLOUDY     9   7  92 S23G30    29.97F WCI -12
$$

COZ009-010-012-014-032>034-037-058>063-230900-
...CENTRAL COLORADO...

CITY           SKY/WX    TMP DP  RH WIND       PRES   REMARKS
ASPEN          FAIR      22  20  92 N13       29.74F WCI  10
BUENA VISTA    LGT SNOW  24  20  83 SE13      29.88F WCI  12
COPPER MTN     LGT SNOW  25  18  74 W21G43    29.78R VSB 3/4 WCI  10
BERTHOUD PASS  CLOUDY    18   9  68 MISG      29.69F
COTTONWOOD PAS LGT SNOW  25  21  86 W5        29.85F WCI  19
GUNNISON       LGT SNOW  19  17  92 W3        29.93F FOG
KREMMLING      CLOUDY    27  21  80 E5        29.78F WCI  21
LEADVILLE      LGT SNOW  15  12  88 CALM      29.77F FOG
MONARCH PASS   CLOUDY    10   9  92 SW16G29   29.96R WCI  -7
SALIDA         CLOUDY    30  18  60 S17G25    29.97F WCI  18
SUNLIGHT       CLOUDY    18  14  86 SW16G30   29.80F WCI   3
WILKERSON PASS CLOUDY    16  12  86 SW17G25   29.81F FOG     WCI   0
$$

COZ069>075-230900-
...SAN LUIS VALLEY/SANGRE DE CRISTO MOUNTAINS...

CITY           SKY/WX    TMP DP  RH WIND       PRES   REMARKS
ALAMOSA        MOCLDY    19  14  81 W6        29.98R WCI  11
LA VETA PASS   CLOUDY    19  18  93 NE22G39   29.90R WCI   3
SAGUACHE       LGT SNOW  23  19  86 SE5       29.97F WCI  17
$$

COZ035-036-038>040-230900-
...NORTHERN COLORADO FRONT RANGE...

CITY           SKY/WX    TMP DP  RH WIND       PRES   REMARKS
DENVER INTL AP CLOUDY    34  17  50 E5        29.67F WCI  30
DMNS CITY PARK   N/A     32  15  50 N2        29.69F
AURORA         MOCLDY    36  15  43 S13       29.68F
FRONT RANGE AP FAIR      37  19  48 S16       29.69F
ERIE MUNI ARPT FAIR      30  23  75 CALM      29.71F
BOULDER MUN AP FAIR      32  19  59 N3        29.71F
CENTENNIAL     FAIR      33  16  49 S8        29.69F WCI  26
BROOMFIELD     FAIR      32  14  47 N7        29.69F WCI  26
FORT COLLINS   FAIR      28  19  69 N8        29.72F WCI  20
LONGMONT       FAIR      34  19  54 N3        29.73F
$$

COZ041-046-047-076>085-087-088-230900-
...PIKES PEAK/PALMER DIVIDE AND SOUTHERN FOOTHILLS...

CITY           SKY/WX    TMP DP  RH WIND       PRES   REMARKS
COLO. SPRINGS  FAIR      27  16  63 E8        29.79F WCI  19
A. F. ACADEMY  FAIR      26  13  60 SE7       29.75F WCI  18
SCHRIEVER AFB  NOT AVBL
ELLICOTT       FAIR     N/A N/A N/A S12       29.77F
FALCON         FAIR      25  15  65 CALM      29.79F
FORT CARSON    NOT AVBL
LIMON          CLOUDY    30  20  66 S12       29.78F WCI  20
MONUMENT HILL  FAIR      28  14  54 S10       29.75F WCI  19
TRINIDAD       FAIR      25  12  58 N5        29.80F WCI  19
$$

COZ042>045-048>051-090-091-230900-
...NORTHEAST COLORADO...

CITY           SKY/WX    TMP DP  RH WIND       PRES   REMARKS
GREELEY ARPT   FAIR      31  23  72 CALM      29.73F
AKRON          MOCLDY    33  20  58 S13       29.78F WCI  24
BURLINGTON     FAIR      31  24  75 S10       29.82F WCI  22
WRAY           NOT AVBL
STERLING       FAIR      30  23  74 SW6       29.78S WCI  24
HOLYOKE        FAIR      32  27  80 S5        29.80F WCI  27
FORT MORGAN    CLOUDY    32  22  67 E9        29.74F WCI  24
$$

COZ086-089-092>099-230900-
...SOUTHEAST COLORADO...

CITY           SKY/WX    TMP DP  RH WIND       PRES   REMARKS
PUEBLO         MOCLDY    28  22  78 SW3       29.80F
LA JUNTA       FAIR      31  18  58 S6        29.80F WCI  25
LAMAR          FAIR      27  22  81 E5        29.83F WCI  22
SPRINGFIELD      N/A     25  19  78 SW10      29.86F WCI  15
$$




USA.gov is the U.S. government's official web portal to all federal, state and local government web resources and services.